DW8956 Weather Reports


time (UTC)temp
C
wind
direction
speed
KPH
gust
KPH
rain 1hr
cm
rain 24hr
cm
rain mn
cm
humidity
%
barometer
mb
20190419130607 20 42 11.3 16.1 0.00 0.00 0.00 37 27.8
20190419125107 20 130 9.7 22.5 0.00 0.00 0.00 36 27.9
20190419123607 20 114 9.7 17.7 0.00 0.00 0.00 36 27.9
20190419122108 20 55 16.1 25.7 0.00 0.00 0.00 33 27.7
20190419115107 20 88 9.7 22.5 0.00 0.00 0.00 33 27.8
20190419113607 20 123 9.7 19.3 0.00 0.00 0.00 35 27.8
20190419110607 20 124 12.9 22.5 0.00 0.00 0.00 36 27.9
20190419105107 19 57 12.9 22.5 0.00 0.00 0.00 37 28.0
20190419103607 19 76 12.9 29.0 0.00 0.00 0.00 38 28.1
20190419100607 19 111 14.5 24.1 0.00 0.00 0.00 39 28.1
20190419093607 18 125 9.7 17.7 0.00 0.00 0.00 43 27.9
20190419090607 17 72 11.3 22.5 0.00 0.00 0.00 44 27.9
20190419085107 17 121 8.0 16.1 0.00 0.00 0.00 45 27.8
20190419080607 16 76 9.7 17.7 0.00 0.00 0.00 51 27.6
20190419073607 15 81 8.0 16.1 0.00 0.00 0.00 50 27.5
20190419072109 14 88 6.4 17.7 0.00 0.00 0.00 53 27.2
20190419065107 13 96 4.8 12.9 0.00 0.00 0.00 54 27.2
20190419060607 12 96 3.2 8.0 0.00 0.00 0.00 56 26.9
20190419055107 11 118 4.8 11.3 0.00 0.00 0.00 58 26.8
20190419053607 10 110 3.2 6.4 0.00 0.00 0.00 60 26.7
20190419052107 10 125 4.8 6.4 0.00 0.00 0.00 61 26.6
20190419035107 10 108 6.4 9.7 0.00 0.00 0.00 61 26.1
20190419033607 10 123 6.4 11.3 0.00 0.00 0.00 60 26.1
20190419030607 10 130 4.8 8.0 0.00 0.00 0.00 59 26.1
20190419025107 10 123 6.4 12.9 0.00 0.00 0.00 58 26.0
20190419023607 10 117 4.8 11.3 0.00 0.00 0.00 58 26.0
20190419022107 10 105 4.8 8.0 0.00 0.00 0.00 58 25.9
20190419015108 10 102 3.2 4.8 0.00 0.00 0.00 57 25.8
20190419013608 10 123 4.8 8.0 0.00 0.00 0.00 57 25.7
20190419012107 10 150 6.4 11.3 0.00 0.00 0.00 57 25.6
20190419005107 11 119 4.8 9.7 0.00 0.00 0.00 56 25.6
20190419003608 11 128 9.7 16.1 0.00 0.00 0.00 56 25.5
20190419002107 11 115 9.7 14.5 0.00 0.00 0.00 56 25.4
20190419000608 11 116 9.7 14.5 0.00 0.00 0.00 57 25.5
20190418235107 11 113 8.0 16.1 0.00 0.00 0.00 57 25.6
20190418233608 11 118 6.4 12.9 0.00 0.00 0.00 57 25.7
20190418232107 11 117 6.4 11.3 0.00 0.00 0.00 56 25.7
20190418225107 11 106 6.4 12.9 0.00 0.00 0.00 56 25.7
20190418222108 12 87 4.8 11.3 0.00 0.00 0.00 55 25.7
20190418215107 12 123 3.2 9.7 0.00 0.00 0.00 55 25.7
20190418213607 12 94 3.2 8.0 0.00 0.00 0.00 54 25.5
20190418205108 12 72 1.6 4.8 0.00 0.00 0.00 52 25.1
20190418202108 13 105 3.2 8.0 0.00 0.00 0.00 53 24.9
20190418200608 13 84 3.2 8.0 0.00 0.00 0.00 53 24.7
20190418195108 13 98 3.2 8.0 0.00 0.00 0.00 52 24.6
20190418192108 13 78 3.2 4.8 0.00 0.00 0.00 50 24.3
20190418190608 14 78 4.8 11.3 0.00 0.00 0.00 49 24.2
20190418185107 15 74 3.2 9.7 0.00 0.00 0.00 48 24.2
20190418182107 15 113 6.4 12.9 0.00 0.00 0.00 46 23.9
20190418180607 16 112 4.8 11.3 0.00 0.00 0.00 46 23.8
20190418175108 16 107 6.4 17.7 0.00 0.00 0.00 44 23.7
20190418173607 16 109 8.0 14.5 0.00 0.00 0.00 43 23.6
20190418170607 17 94 12.9 22.5 0.00 0.00 0.00 41 23.5
20190418165107 17 85 12.9 30.6 0.00 0.00 0.00 39 23.5
20190418155107 17 130 11.3 24.1 0.00 0.00 0.00 42 23.6
20190418153608 17 107 12.9 27.4 0.00 0.00 0.00 42 23.5
20190418150607 17 76 14.5 24.1 0.00 0.00 0.00 43 23.4
20190418142108 17 57 12.9 22.5 0.00 0.00 0.00 44 23.7
20190418140608 17 113 12.9 27.4 0.00 0.00 0.00 45 23.7
20190418135108 17 107 11.3 27.4 0.00 0.00 0.00 47 23.8
20190418133608 17 81 14.5 24.1 0.00 0.00 0.00 45 23.9